Location: ????????
(54.9045°N, 39.1041°E)
Time: 11:59:38
(UTC+00:00)

ALOS - Pass Details

Date: 14 April 2024
Orbit: 674 x 675 km, 98.0° (Epoch: 21 May)

Event Time Altitude Azimuth Distance (km) Brightness Sun altitude
Rises 00:01:49 0° 17° (NNE) 3,049 6.8 -17.6°
Reaches altitude 10° 00:04:07 10° 22° (NNE) 2,129 5.9 -17.4°
Maximum altitude 00:08:41 54° 100° (E) 830 2.8 -16.9°
Enters shadow 00:12:12 16° 174° (S) 1,726 4.0 -16.6°
